STARLINK-32755, 62842

Orbit data source: Space-Track

STARLINK-32755, 62842 is a payload satellite owned by SpaceX/Seattle (US) in LEO that was launched on Mon, 27 Jan 2025 UTC via an FALCON 9 launch vehicle from the Air Force Eastern Test Range (AFETR). Payload-class satellites include a variety of spacecraft equipped with specific instruments for various scientific and technological missions. These include communications satellites like Starlink; space stations such as the ISS; scientific satellites like the Hubble; Earth observation satellites from companies like Planet Labs, Umbra, and HawkEye 360; GPS; miniature CubeSats for education and research; and military/defense satellites.

Loading next visibility...
Identifier
62842, 2025-019P
Orbit
LEO
Last TLE update
13 hours ago
Origin
Manufacturer
SpaceX/Seattle
Mission
Operational Commercial Communications
Bus & Motor
STARLINK V2M, Unknown motor
Mass
730 kg wet, ~700 kg dry
Launch date (UTC)
2025-01-27 (5 months ago)
Launch vehicle
FALCON 9
Launch site
Air Force Eastern Test Range (AFETR)
Object type
Payload
Rocket body
Debris
Shape & HBR
Box + 2 Pan, 29 m
Radar Cross Section
33.884 m², Large (>1 m²)

Expand to show TLE details & history

TLE from 13 hours ago
0 STARLINK-32755
1 62842U 25019P   25183.33350681  .00014145  00000-0  52251-3 0  9990
2 62842  42.9965  55.8136 0001319 265.6861  94.3840 15.27582450 24042
Epoch: 2025-07-02T08:00Z
TLE epoch observation values (Epoch: 2025-07-02T08:00:14.988Z)
Latitude
-0.00001°
Longitude
15.13503°
Altitude
482.886 km
Speed
7.626 km/s
True Right ascension
03h 43m 15s
True Declination
0° 00' 00"
Sunlit
Object was in daylight at epoch
Visualization orbit readout
Latitude
17.5225°
Longitude
31.83163°
Altitude
482.581 km
Speed
7.627 km/s
Apparent Right ascension
01h 40m 47s
Apparent Declination
-20° 36' 56"
Sunlit
Object is in daylight
Visualization observer readout
Local Sidereal Time
08:24:22
Azimuth
260.335° W
Elevation
-21.2°
Doppler factor
1
Orbital elements
Apogee altitude
485.893 km
Perigee altitude
484.082 km
Semi-major axis
6,863.125 km
Eccentricity
0.00013
Inclination
42.9965°
RAAN
55.8136°
Arg. of periapsis
265.6861°
True anomaly
Unknown
Mean anomaly
94.384°
Eccentric anomaly
Unknown
Mean motion
3.81734 °/min
Orbital period
94.31 mins
BSTAR
0.00052251
Loading maneuver chart data...
Loading SW <> Apogee altitude chart data...
Loading historical data...
Loading historical data...
Loading historical data...
Loading historical data...
Loading historical data...
Loading historical data...
Loading historical data...

STARLINK-32755 Visibility forecast

Observer location: undefined°, undefined°

Span
Click to sort rows by Start time (UTC) header in descending order
Start Az.
Max El. time (UTC)
Max El. Az.
Max El.
End time (UTC)
End Az.
6 mins2025-07-02 20:51:18.270Z271.849° WNW2025-07-02 20:54:18.270Z344.177° N40.653°2025-07-02 20:57:18.270Z68.733° E
5 mins2025-07-02 22:31:18.270Z294.725° NW2025-07-02 22:33:18.270Z345.32° N39.578°2025-07-02 22:36:18.270Z85.117° E
5 mins2025-07-03 00:10:18.270Z275.551° WNW2025-07-03 00:12:18.270Z223.272° SW38.037°2025-07-03 00:15:18.270Z132.611° SE
5 mins2025-07-03 18:45:18.270Z221.267° SW2025-07-03 18:47:18.270Z174.209° S35.943°2025-07-03 18:50:18.270Z83.398° E
5 mins2025-07-03 20:24:18.270Z275.226° WNW2025-07-03 20:26:18.270Z325.082° NNW40.084°2025-07-03 20:29:18.270Z67.657° E
|